Location: Beaucamp
(50.0331°N, 3.7940°E)
Time: 00:26:28
(UTC+00:00)

Daily predictions for brighter satellites

Satellite Brightness Start Highest point End
(mag) Time Altitude Azimuth Time Altitude Azimuth Time Altitude Azimuth
SL-16 R/B 4.4 00:24:55 23° NE 00:24:55 23° NE 00:28:52 10° N
Cosmos 2082 Rocket 4.4 00:50:59 22° NNE 00:50:59 22° NNE 00:52:52 10° NNE
Cosmos 2219 Rocket 4.4 01:07:06 10° NNW 01:09:04 19° N 01:09:04 19° N
ATLAS 3B R/B 4.4 01:09:43 10° NW 01:27:31 - SE 01:12:35 25° NW
USA 215 4.1 01:11:25 10° E 01:16:10 44° NE 01:16:10 44° NE
ATLAS 2AS CENTAUR R/B 3.5 01:22:05 48° ENE 01:22:05 48° ENE 01:27:11 10° NE
Resurs 1-4 Rocket 3.8 01:41:06 10° NNE 01:43:36 29° NNE 01:43:36 29° NNE
NOSS 3-1 (A) 4.0 01:55:41 69° N 01:56:31 75° NE 02:05:11 10° SE
SL-16 R/B 3.6 02:10:00 34° NNW 02:10:00 34° NNW 02:13:19 10° NNW
USA 281 3.5 02:00:58 10° NNE 02:07:16 59° ESE 02:07:16 59° ESE
ADEOS II 3.3 02:03:22 10° NNE 02:06:36 39° NNE 02:06:36 39° NNE
Cosmos 2266 Rocket 4.4 02:09:14 62° ENE 02:09:14 62° ENE 02:15:14 10° NNE
Cosmos 2315 Rocket 4.5 02:06:01 10° N 02:12:20 58° ENE 02:13:09 54° ESE
CZ-2D R/B 3.4 02:08:27 10° N 02:11:32 35° N 02:11:32 35° N
CZ-2C R/B 3.9 02:19:07 33° N 02:19:07 33° N 02:22:04 10° N
IDEFIX/ARIANE 42P 3.9 02:16:58 10° N 02:19:53 32° N 02:19:53 32° N
Cosmos 2237 Rocket 4.1 02:19:46 10° NNW 02:24:36 27° NE 02:29:24 10° E
Lacrosse 5 rocket 3.6 02:31:30 23° ENE 02:31:30 23° ENE 02:33:04 10° ENE
Lacrosse 4 Rocket 4.1 02:33:06 14° N 02:33:06 14° N 02:34:18 10° N
Cosmos 2082 Rocket 4.0 02:32:50 21° NNW 02:32:50 21° NNW 02:36:25 10° N
ATLAS CENTAUR R/B 3.5 02:34:10 63° WNW 02:35:14 71° NNW 02:47:39 10° ENE
FENGYUN 3A 3.7 02:40:08 10° NNE 02:44:55 71° NNE 02:44:55 71° NNE
ATLAS 5 CENTAUR R/B 3.9 02:46:58 15° N 02:47:26 15° N 02:50:04 10° NNE
COSMOS 2428 2.8 02:42:17 10° NNW 02:48:00 74° ENE 02:53:42 10° SE
Timation 1 Rocket 4.2 02:49:01 86° NW 02:49:01 86° NW 02:55:00 10° NNE
CZ-2C R/B 3.4 02:50:57 10° NNE 02:55:26 40° E 02:56:49 32° SE
ALOS 2.6 02:52:30 10° NNE 02:56:20 60° NNE 02:56:20 60° NNE
USA 215 3.2 02:53:54 10° ESE 03:00:29 88° NNE 03:03:31 36° WNW
Cosmos 1842 Rocket 4.2 03:09:35 48° N 03:09:35 48° N 03:12:54 10° N
Cosmos 2084 Rocket 4.5 03:11:36 35° N 03:11:36 35° N 03:14:18 10° NE
Meteor 1-26 Rocket 4.4 03:11:34 54° WNW 03:11:34 54° WNW 03:16:53 10° N
ATLAS 2AS CENTAUR R/B 3.4 03:09:31 38° WNW 03:11:22 44° NNW 03:18:11 10° NE
Cosmos 1655 Rocket 4.0 03:13:15 57° WSW 03:14:05 62° WNW 03:20:27 10° N
Cosmos 1833 4.4 03:14:15 53° WNW 03:14:23 53° NW 03:19:54 10° NNE
SL-08 ROCKET BODY 4.4 03:16:47 57° WSW 03:17:37 63° WNW 03:23:40 10° N
Cosmos 2150 Rocket 4.4 03:16:29 36° S 03:18:31 61° ESE 03:23:42 10° NNE
CZ-2C R/B 3.1 03:12:50 10° NNE 03:18:37 79° WNW 03:19:54 55° SSW
Thor Agena Rocket 3.6 03:15:56 10° N 03:21:09 61° WNW 03:21:27 59° W
Meteor 2-12 Rocket 4.5 03:20:51 53° WSW 03:21:35 56° WNW 03:27:39 10° N
Resurs 1-4 Rocket 3.8 03:21:55 10° N 03:24:40 19° NW 03:24:40 19° NW
Cosmos 1743 Rocket 3.4 03:22:27 10° N 03:26:50 87° WSW 03:27:40 58° S
Meteor 1-11 Rocket 3.9 03:21:59 10° N 03:27:55 80° ENE 03:33:53 10° SSE
Meteor 1-14 Rocket 4.4 03:22:40 10° NNW 03:28:31 55° W 03:30:00 44° SW
Cosmos 1805 Rocket 3.4 03:24:51 10° N 03:29:13 87° WSW 03:30:45 40° S
Cosmos 1980 4.0 03:25:26 10° NNW 03:31:07 69° ENE 03:36:45 10° SE
USA 229 DEB 3.8 03:24:00 10° NW 03:31:21 73° SW 03:39:18 10° SSE
USA 229 3.8 03:24:05 10° NW 03:31:26 73° SW 03:39:22 10° SSE
Cosmos 1867 4.1 03:33:23 40° SSW 03:33:23 40° SSW 03:37:21 10° SSE
ATLAS CENTAUR R/B 3.4 03:34:46 10° NNW 03:37:39 22° NNE 03:40:31 10° E
Sich 1 2.8 03:33:42 10° NNW 03:38:03 78° W 03:41:11 19° S
Meteor 2-6 Rocket 4.1 03:38:04 45° SW 03:39:27 60° WNW 03:44:50 10° N
Cosmos 1484 Rocket 4.2 03:37:12 10° NNE 03:40:34 35° E 03:43:55 10° SSE
GP-B 3.0 03:38:17 26° S 03:40:46 86° W 03:45:13 10° N
Cosmos 1244 Rocket 4.4 03:39:43 18° SSW 03:44:38 79° W 03:51:00 10° N
YAOGAN 6 2.3 03:41:55 10° NNE 03:45:21 90° E 03:45:35 77° SSW
BlueWalker 3 3.7 03:48:24 20° S 03:48:24 20° S 03:50:03 10° SSE
ADEOS II 3.6 03:43:58 10° N 03:47:29 20° NW 03:47:29 20° NW
Meteor 1-10 Rocket 4.1 03:44:45 21° SSW 03:48:35 81° WNW 03:54:10 10° N
USA 281 3.9 03:45:48 10° NNE 03:51:45 38° NW 03:54:08 29° W
IRS-1D 3.6 03:46:37 10° N 03:51:50 58° WNW 03:54:06 32° SW
CZ-2D R/B 4.0 03:50:12 10° NNW 03:52:49 14° NW 03:52:49 14° NW
Envisat 2.9 03:49:02 10° NNE 03:54:08 77° WNW 03:57:46 19° SSW
TIMED 4.4 03:58:24 31° SSW 04:00:25 79° WNW 04:04:47 10° NNE
Cosmos 2297 Rocket 2.7 03:55:39 10° S 04:01:11 60° ESE 04:06:45 10° NE
Cosmos 1536 3.0 04:02:18 10° NNW 04:06:00 43° W 04:07:16 31° SW
Lacrosse 5 rocket 2.0 04:06:40 30° WNW 04:07:58 40° NNW 04:11:39 10° NE
Cosmos 1125 Rocket 4.0 04:06:14 30° WSW 04:08:08 41° WNW 04:13:04 10° NNE
Cosmos 2237 Rocket 2.1 04:03:32 10° NNW 04:09:13 72° WSW 04:14:51 10° SSE
METEOR-M 4.4 04:05:37 10° N 04:10:44 47° WNW 04:13:57 21° SW
Cosmos 1470 Rocket 4.5 04:07:49 10° N 04:12:12 52° ENE 04:16:34 10° SSE
Meteor 2-10 4.3 04:09:22 10° N 04:14:41 70° ENE 04:19:47 10° SSE
SL-16 R/B 3.1 04:13:13 10° NNW 04:18:49 53° NE 04:24:22 10° SE
Okean 1 3.1 04:16:10 10° SSW 04:19:59 70° WNW 04:23:51 10° N
Cosmos 1726 2.0 04:18:43 10° N 04:22:10 76° E 04:25:35 10° SSE
H-2A R/B 2.9 04:19:22 10° NNE 04:22:51 64° E 04:26:18 10° S
SL-08 R/B 4.4 04:18:36 10° SE 04:23:14 50° ENE 04:27:59 10° N
ERS-2 3.6 04:21:22 10° NNE 04:24:15 32° E 04:27:07 10° SSE
Cosmos 1975 3.4 04:20:42 10° N 04:24:38 60° ENE 04:28:33 10° SSE
COBE Rocket 4.0 04:21:53 10° N 04:26:34 52° WNW 04:31:22 10° SW
IRS-1C 4.3 04:24:51 10° NNE 04:30:12 75° ESE 04:35:32 10° S
Cosmos 2344 4.2 04:23:34 10° SSW 04:30:50 52° ESE 04:38:00 10° NE
Nadezhda 1 Rocket 4.1 04:24:54 10° NNW 04:31:02 55° W 04:37:02 10° SSW
COSMOS 2428 3.8 04:27:28 10° NW 04:31:39 21° W 04:35:51 10° SSW
CBERS-1 4.2 04:27:19 10° N 04:32:18 53° WNW 04:37:16 10° SW
ATLAS 5 CENTAUR R/B 3.9 04:29:46 10° NNW 04:33:15 21° NNE 04:37:14 10° ENE
CZ-2C R/B 3.2 04:29:22 10° N 04:33:29 29° WNW 04:36:09 17° WSW
ALOS 3.9 04:31:09 10° NNW 04:33:49 15° NW 04:34:42 15° WNW
Cosmos 1151 Rocket 3.4 04:31:46 10° SW 04:35:54 42° WNW 04:40:06 10° N
Cosmos 1733 3.0 04:38:06 10° NNW 04:41:49 78° W 04:45:29 10° S
USA 215 3.8 04:38:01 10° SSE 04:43:57 36° SW 04:49:56 10° WNW
Cosmos 1515 Rocket 4.1 04:39:43 10° S 04:44:03 61° E 04:48:22 10° NNE
Cosmos 1666 Rocket 3.9 04:40:20 10° NNW 04:44:27 41° W 04:48:31 10° SSW
ARIANE 5 R/B 2.5 04:40:33 10° NNE 04:45:37 90° WNW 04:50:36 10° SSW
BREEZE-M DEB (TANK) 4.1 04:42:21 15° WSW 04:45:57 78° SSE 05:05:24 10° E
Cosmos 1328 Rocket 3.5 04:42:37 10° SSW 04:46:59 64° WNW 04:51:22 10° N
Cosmos 2227 Rocket 2.4 04:42:18 10° SSW 04:47:58 77° ESE 04:53:40 10° NNE
COSMO-SKYMED 1 2.7 04:44:16 10° SSE 04:48:37 83° ENE 04:53:00 10° NNW
Cosmos 44 Rocket 3.4 04:44:00 10° SW 04:49:02 69° NW 04:54:15 10° NE
Cosmos 1933 Rocket 3.9 04:46:11 10° N 04:50:31 69° ENE 04:54:50 10° SSE
Cosmos 2263 Rocket 4.3 04:46:22 10° SSE 04:51:10 30° ESE 04:55:58 10° NE
Genesis I 3.3 04:48:06 10° NW 04:51:49 70° NE 04:55:30 10° SE
Meteor 1-27 Rocket 4.2 04:50:01 10° SW 04:55:19 40° WNW 05:00:44 10° N
CZ-2D R/B 3.6 04:51:37 10° NNE 04:55:59 86° ESE 05:00:21 10° SSW
Helios 1A 3.7 04:56:51 10° SSW 05:00:27 30° W 05:04:06 10° NW
ATLAS 2AS CENTAUR R/B 4.1 04:58:02 10° WNW 05:04:06 27° N 05:09:56 10° NE
IRS-P3 4.1 04:59:02 10° NNE 05:04:23 72° WNW 05:09:41 10° SSW
Cosmos 1238 4.5 05:04:14 10° NNW 05:07:10 42° W 05:10:03 10° SSW
Cosmos 1709 Rocket 4.1 05:01:41 10° SSW 05:07:58 59° WNW 05:14:15 10° N
Cosmos 1805 3.2 05:04:53 10° NNW 05:08:37 57° W 05:12:18 10° S
Cosmos 1140 Rocket 3.5 05:07:25 10° NNW 05:12:41 79° WSW 05:17:55 10° SSE
Cosmos 1023 Rocket 4.5 05:07:38 10° NNW 05:12:55 76° WSW 05:18:10 10° SSE
Cosmos 1633 Rocket 4.0 05:09:14 10° NNW 05:12:56 27° W 05:16:37 10° SW
Cosmos 1484 Rocket 3.9 05:11:38 10° NNW 05:14:26 21° WNW 05:17:13 10° WSW
Meteor 2-4 Rocket 3.8 05:09:04 10° SSW 05:14:57 68° WNW 05:20:44 10° N
Spot 4 Rocket 4.4 05:09:49 10° NNE 05:14:58 73° ESE 05:20:05 10° S
ATLAS CENTAUR R/B 1.1 05:12:30 10° NW 05:16:02 57° SW 05:19:33 10° SSE
H-2A R/B 2.2 05:16:15 10° N 05:21:41 67° WNW 05:27:01 10° SSW
